Time,TemperatureF,DewpointF,PressureIn,WindDirection,WindDirectionDegrees,WindSpeedMPH,WindSpeedGustMPH,Humidity,HourlyPrecipIn,Conditions,Clouds,dailyrainin,SoftwareType,DateUTC
2013-12-19 00:01:00,55.5,44.7,29.91,South,172,2.0,8.0,67,0.00,,,0.00,VWS V14.01,2013-12-19 06:01:00,
2013-12-19 00:06:00,55.6,44.8,29.91,SE,132,4.0,10.0,67,0.00,,,0.00,VWS V14.01,2013-12-19 06:06:00,
2013-12-19 00:11:00,55.6,44.8,29.91,SE,134,1.0,10.0,67,0.00,,,0.00,VWS V14.01,2013-12-19 06:11:00,
2013-12-19 00:16:00,55.6,44.8,29.91,SSE,147,4.0,10.0,67,0.00,,,0.00,VWS V14.01,2013-12-19 06:16:00,
2013-12-19 00:21:00,55.5,44.7,29.91,SE,146,2.0,10.0,67,0.00,,,0.00,VWS V14.01,2013-12-19 06:21:00,
2013-12-19 00:26:00,55.6,44.8,29.91,SSE,156,2.0,10.0,67,0.00,,,0.00,VWS V14.01,2013-12-19 06:26:00,
2013-12-19 00:31:00,55.6,44.8,29.91,ESE,121,4.0,10.0,67,0.00,,,0.00,VWS V14.01,2013-12-19 06:31:00,
2013-12-19 00:36:00,55.7,44.9,29.90,South,178,6.0,9.0,67,0.00,,,0.00,VWS V14.01,2013-12-19 06:36:00,
2013-12-19 00:41:00,55.8,45.0,29.90,SSE,155,2.0,9.0,67,0.00,,,0.00,VWS V14.01,2013-12-19 06:41:00,
2013-12-19 00:46:00,55.8,45.0,29.90,South,169,4.0,9.0,67,0.00,,,0.00,VWS V14.01,2013-12-19 06:46:00,
2013-12-19 00:51:00,55.8,45.0,29.90,South,173,1.0,9.0,67,0.00,,,0.00,VWS V14.01,2013-12-19 06:51:00,
2013-12-19 00:56:00,55.8,45.0,29.90,SE,125,4.0,11.0,67,0.00,,,0.00,VWS V14.01,2013-12-19 06:56:00,
2013-12-19 01:01:00,55.8,45.0,29.90,South,186,7.0,11.0,67,0.00,,,0.00,VWS V14.01,2013-12-19 07:01:00,
2013-12-19 01:06:00,55.9,45.1,29.90,SW,223,3.0,12.0,67,0.00,,,0.00,VWS V14.01,2013-12-19 07:06:00,
2013-12-19 01:11:00,55.9,45.1,29.89,SSE,167,4.0,12.0,67,0.00,,,0.00,VWS V14.01,2013-12-19 07:11:00,
2013-12-19 01:16:00,55.8,45.0,29.89,South,190,5.0,12.0,67,0.00,,,0.00,VWS V14.01,2013-12-19 07:16:00,
2013-12-19 01:21:00,55.8,45.0,29.89,ESE,102,9.0,12.0,67,0.00,,,0.00,VWS V14.01,2013-12-19 07:21:00,
2013-12-19 01:26:00,55.7,44.9,29.89,SSE,148,9.0,12.0,67,0.00,,,0.00,VWS V14.01,2013-12-19 07:26:00,
2013-12-19 01:31:00,55.7,45.3,29.89,SE,144,6.0,12.0,68,0.00,,,0.00,VWS V14.01,2013-12-19 07:31:00,
2013-12-19 01:36:00,55.7,45.3,29.88,SSE,153,4.0,9.0,68,0.00,,,0.00,VWS V14.01,2013-12-19 07:36:00,
2013-12-19 01:41:00,55.7,45.3,29.89,SSW,211,6.0,12.0,68,0.00,,,0.00,VWS V14.01,2013-12-19 07:41:00,
2013-12-19 01:46:00,55.8,45.4,29.89,SSW,207,4.0,12.0,68,0.00,,,0.00,VWS V14.01,2013-12-19 07:46:00,
2013-12-19 01:51:00,55.7,45.3,29.88,South,171,3.0,12.0,68,0.00,,,0.00,VWS V14.01,2013-12-19 07:51:00,
2013-12-19 01:56:00,55.7,45.3,29.89,SSE,154,6.0,12.0,68,0.00,,,0.00,VWS V14.01,2013-12-19 07:56:00,
2013-12-19 02:01:00,55.7,45.7,29.89,SE,137,4.0,12.0,69,0.00,,,0.00,VWS V14.01,2013-12-19 08:01:00,
2013-12-19 02:06:00,55.6,45.6,29.88,SE,126,7.0,8.0,69,0.00,,,0.00,VWS V14.01,2013-12-19 08:06:00,
2013-12-19 02:11:00,55.5,45.5,29.88,SSW,192,2.0,9.0,69,0.00,,,0.00,VWS V14.01,2013-12-19 08:11:00,
2013-12-19 02:16:00,55.5,45.5,29.88,SSW,203,0.0,9.0,69,0.00,,,0.00,VWS V14.01,2013-12-19 08:16:00,
2013-12-19 02:21:00,55.4,45.4,29.88,South,180,0.0,9.0,69,0.00,,,0.00,VWS V14.01,2013-12-19 08:21:00,
2013-12-19 02:26:00,55.4,45.4,29.88,SSW,213,3.0,9.0,69,0.00,,,0.00,VWS V14.01,2013-12-19 08:26:00,
2013-12-19 02:31:00,55.3,45.7,29.88,SSE,152,0.0,9.0,70,0.00,,,0.00,VWS V14.01,2013-12-19 08:31:00,
2013-12-19 02:36:00,55.2,45.6,29.88,SE,137,1.0,4.0,70,0.00,,,0.00,VWS V14.01,2013-12-19 08:36:00,
2013-12-19 02:41:00,55.1,45.5,29.88,SE,142,5.0,8.0,70,0.00,,,0.00,VWS V14.01,2013-12-19 08:41:00,
2013-12-19 02:46:00,55.1,45.9,29.87,South,175,7.0,9.0,71,0.00,,,0.00,VWS V14.01,2013-12-19 08:46:00,
2013-12-19 02:51:00,55.3,46.1,29.87,SE,145,2.0,13.0,71,0.00,,,0.00,VWS V14.01,2013-12-19 08:51:00,
2013-12-19 02:56:00,55.3,46.1,29.87,South,183,1.0,13.0,71,0.00,,,0.00,VWS V14.01,2013-12-19 08:56:00,
2013-12-19 03:01:00,55.3,46.1,29.87,SSE,163,7.0,13.0,71,0.00,,,0.00,VWS V14.01,2013-12-19 09:01:00,
2013-12-19 03:06:00,55.3,46.1,29.87,SE,142,5.0,10.0,71,0.00,,,0.00,VWS V14.01,2013-12-19 09:06:00,
2013-12-19 03:11:00,55.3,46.1,29.87,SSE,167,2.0,10.0,71,0.00,,,0.00,VWS V14.01,2013-12-19 09:11:00,
2013-12-19 03:16:00,55.3,46.1,29.87,SSW,196,5.0,10.0,71,0.00,,,0.00,VWS V14.01,2013-12-19 09:16:00,
2013-12-19 03:21:00,55.2,46.0,29.87,South,173,2.0,10.0,71,0.00,,,0.00,VWS V14.01,2013-12-19 09:21:00,
2013-12-19 03:26:00,55.1,45.9,29.87,SSE,156,0.0,10.0,71,0.00,,,0.00,VWS V14.01,2013-12-19 09:26:00,
2013-12-19 03:31:00,54.9,45.7,29.87,SE,138,0.0,10.0,71,0.00,,,0.00,VWS V14.01,2013-12-19 09:31:00,
2013-12-19 03:36:00,54.8,45.6,29.87,South,180,1.0,11.0,71,0.00,,,0.00,VWS V14.01,2013-12-19 09:36:00,
2013-12-19 03:41:00,54.4,45.2,29.86,SE,142,2.0,11.0,71,0.00,,,0.00,VWS V14.01,2013-12-19 09:41:00,
2013-12-19 03:46:00,54.2,45.0,29.86,SE,141,0.0,11.0,71,0.00,,,0.00,VWS V14.01,2013-12-19 09:46:00,
2013-12-19 03:51:00,53.9,45.1,29.86,SE,141,0.0,11.0,72,0.00,,,0.00,VWS V14.01,2013-12-19 09:51:00,
2013-12-19 03:56:00,53.5,45.1,29.86,SE,140,2.0,11.0,73,0.00,,,0.00,VWS V14.01,2013-12-19 09:56:00,
2013-12-19 04:01:00,53.3,45.2,29.85,SSE,147,6.0,11.0,74,0.00,,,0.00,VWS V14.01,2013-12-19 10:01:00,
2013-12-19 04:06:00,53.2,45.5,29.85,SSW,211,4.0,6.0,75,0.00,,,0.00,VWS V14.01,2013-12-19 10:06:00,
2013-12-19 04:11:00,53.1,45.4,29.85,South,184,0.0,6.0,75,0.00,,,0.00,VWS V14.01,2013-12-19 10:11:00,
2013-12-19 04:16:00,53.2,45.8,29.84,SSE,157,2.0,10.0,76,0.00,,,0.00,VWS V14.01,2013-12-19 10:16:00,
2013-12-19 04:21:00,53.3,45.9,29.84,SSE,161,3.0,10.0,76,0.00,,,0.00,VWS V14.01,2013-12-19 10:21:00,
2013-12-19 04:26:00,53.3,45.9,29.84,ESE,107,8.0,10.0,76,0.00,,,0.00,VWS V14.01,2013-12-19 10:26:00,
2013-12-19 04:31:00,53.4,46.0,29.84,SE,145,4.0,10.0,76,0.00,,,0.00,VWS V14.01,2013-12-19 10:31:00,
2013-12-19 04:36:00,53.5,46.1,29.84,SE,137,2.0,8.0,76,0.00,,,0.00,VWS V14.01,2013-12-19 10:36:00,
2013-12-19 04:41:00,53.5,46.1,29.84,SE,140,0.0,8.0,76,0.00,,,0.00,VWS V14.01,2013-12-19 10:41:00,
2013-12-19 04:46:00,53.5,46.1,29.84,SSE,148,0.0,8.0,76,0.00,,,0.00,VWS V14.01,2013-12-19 10:46:00,
2013-12-19 04:51:00,53.4,46.0,29.83,SSE,149,3.0,10.0,76,0.00,,,0.00,VWS V14.01,2013-12-19 10:51:00,
2013-12-19 04:56:00,53.4,46.0,29.83,SSE,152,0.0,10.0,76,0.00,,,0.00,VWS V14.01,2013-12-19 10:56:00,
2013-12-19 05:01:00,53.3,46.3,29.83,SE,144,0.0,10.0,77,0.00,,,0.00,VWS V14.01,2013-12-19 11:01:00,
2013-12-19 05:06:00,53.2,46.2,29.83,SSE,153,2.0,9.0,77,0.00,,,0.00,VWS V14.01,2013-12-19 11:06:00,
2013-12-19 05:11:00,53.2,46.5,29.83,ESE,119,5.0,9.0,78,0.00,,,0.00,VWS V14.01,2013-12-19 11:11:00,
2013-12-19 05:16:00,53.2,46.5,29.83,SE,138,0.0,9.0,78,0.00,,,0.00,VWS V14.01,2013-12-19 11:16:00,
2013-12-19 05:21:00,53.1,46.4,29.83,SE,128,0.0,9.0,78,0.00,,,0.00,VWS V14.01,2013-12-19 11:21:00,
2013-12-19 05:26:00,53.1,46.8,29.83,ESE,112,4.0,9.0,79,0.00,,,0.00,VWS V14.01,2013-12-19 11:26:00,
2013-12-19 05:31:00,53.1,46.8,29.82,ESE,122,5.0,9.0,79,0.00,,,0.00,VWS V14.01,2013-12-19 11:31:00,
2013-12-19 05:36:00,53.2,46.9,29.82,SSW,194,2.0,8.0,79,0.00,,,0.00,VWS V14.01,2013-12-19 11:36:00,
2013-12-19 05:41:00,53.1,46.8,29.82,SSE,147,4.0,8.0,79,0.00,,,0.00,VWS V14.01,2013-12-19 11:41:00,
2013-12-19 05:46:00,53.2,46.9,29.82,South,172,2.0,8.0,79,0.00,,,0.00,VWS V14.01,2013-12-19 11:46:00,
2013-12-19 05:51:00,53.1,47.1,29.82,SE,135,6.0,8.0,80,0.00,,,0.00,VWS V14.01,2013-12-19 11:51:00,
2013-12-19 05:56:00,53.1,47.1,29.82,South,170,0.0,8.0,80,0.00,,,0.00,VWS V14.01,2013-12-19 11:56:00,
2013-12-19 06:01:00,53.1,47.1,29.82,SE,130,3.0,8.0,80,0.00,,,0.00,VWS V14.01,2013-12-19 12:01:00,
2013-12-19 06:06:00,53.0,47.0,29.82,ESE,111,0.0,3.0,80,0.00,,,0.00,VWS V14.01,2013-12-19 12:06:00,
2013-12-19 06:11:00,52.9,47.2,29.81,SE,132,0.0,8.0,81,0.00,,,0.00,VWS V14.01,2013-12-19 12:11:00,
2013-12-19 06:16:00,52.8,47.1,29.81,South,173,4.0,9.0,81,0.00,,,0.00,VWS V14.01,2013-12-19 12:16:00,
2013-12-19 06:21:00,52.8,47.1,29.81,ESE,121,0.0,10.0,81,0.00,,,0.00,VWS V14.01,2013-12-19 12:21:00,
2013-12-19 06:26:00,52.8,47.5,29.81,ESE,102,0.0,10.0,82,0.00,,,0.00,VWS V14.01,2013-12-19 12:26:00,
2013-12-19 06:31:00,52.8,47.8,29.81,SSW,194,3.0,10.0,83,0.00,,,0.00,VWS V14.01,2013-12-19 12:31:00,
2013-12-19 06:36:00,52.9,47.9,29.81,WSW,238,0.0,7.0,83,0.00,,,0.00,VWS V14.01,2013-12-19 12:36:00,
2013-12-19 06:41:00,53.0,48.3,29.81,South,188,0.0,9.0,84,0.00,,,0.00,VWS V14.01,2013-12-19 12:41:00,
2013-12-19 06:46:00,53.0,48.0,29.81,South,182,4.0,9.0,83,0.00,,,0.00,VWS V14.01,2013-12-19 12:46:00,
2013-12-19 06:51:00,53.1,48.4,29.81,South,178,3.0,9.0,84,0.00,,,0.00,VWS V14.01,2013-12-19 12:51:00,
2013-12-19 06:56:00,53.1,48.4,29.80,SSE,155,2.0,9.0,84,0.00,,,0.00,VWS V14.01,2013-12-19 12:56:00,
2013-12-19 07:01:00,53.2,48.8,29.80,South,184,3.0,9.0,85,0.00,,,0.00,VWS V14.01,2013-12-19 13:01:00,
2013-12-19 07:06:00,53.3,48.9,29.80,SSE,163,2.0,13.0,85,0.00,,,0.00,VWS V14.01,2013-12-19 13:06:00,
2013-12-19 07:11:00,53.4,49.0,29.80,SE,141,8.0,13.0,85,0.00,,,0.00,VWS V14.01,2013-12-19 13:11:00,
2013-12-19 07:16:00,53.5,49.1,29.80,SSE,153,5.0,13.0,85,0.00,,,0.00,VWS V14.01,2013-12-19 13:16:00,
2013-12-19 07:21:00,53.6,49.2,29.80,SSE,168,1.0,13.0,85,0.00,,,0.00,VWS V14.01,2013-12-19 13:21:00,
2013-12-19 07:26:00,53.8,49.4,29.80,South,169,2.0,21.0,85,0.00,,,0.00,VWS V14.01,2013-12-19 13:26:00,
2013-12-19 07:31:00,54.0,49.6,29.80,SE,142,0.0,21.0,85,0.00,,,0.00,VWS V14.01,2013-12-19 13:31:00,
2013-12-19 07:36:00,54.1,49.7,29.79,South,188,3.0,8.0,85,0.00,,,0.00,VWS V14.01,2013-12-19 13:36:00,
2013-12-19 07:41:00,54.2,49.8,29.79,South,187,1.0,12.0,85,0.00,,,0.00,VWS V14.01,2013-12-19 13:41:00,
2013-12-19 07:46:00,54.4,50.0,29.79,SE,144,6.0,12.0,85,0.00,,,0.00,VWS V14.01,2013-12-19 13:46:00,
2013-12-19 07:51:00,54.5,50.1,29.79,SSE,160,2.0,12.0,85,0.00,,,0.00,VWS V14.01,2013-12-19 13:51:00,
2013-12-19 07:56:00,54.6,50.2,29.80,SSW,194,6.0,13.0,85,0.00,,,0.00,VWS V14.01,2013-12-19 13:56:00,
2013-12-19 08:01:00,54.8,50.4,29.79,South,188,1.0,13.0,85,0.00,,,0.00,VWS V14.01,2013-12-19 14:01:00,
2013-12-19 08:06:00,55.1,50.7,29.79,WSW,243,7.0,15.0,85,0.00,,,0.00,VWS V14.01,2013-12-19 14:06:00,
2013-12-19 08:11:00,55.4,50.7,29.79,South,175,5.0,15.0,84,0.00,,,0.00,VWS V14.01,2013-12-19 14:11:00,
2013-12-19 08:16:00,55.7,51.0,29.79,SSE,159,5.0,15.0,84,0.00,,,0.00,VWS V14.01,2013-12-19 14:16:00,
2013-12-19 08:21:00,55.9,50.8,29.79,SSW,198,10.0,15.0,83,0.00,,,0.00,VWS V14.01,2013-12-19 14:21:00,
2013-12-19 08:26:00,56.1,51.0,29.80,South,178,6.0,15.0,83,0.00,,,0.00,VWS V14.01,2013-12-19 14:26:00,
2013-12-19 08:31:00,56.4,51.3,29.79,SSE,148,8.0,15.0,83,0.00,,,0.00,VWS V14.01,2013-12-19 14:31:00,
2013-12-19 08:36:00,56.6,51.5,29.80,SSE,155,4.0,11.0,83,0.00,,,0.00,VWS V14.01,2013-12-19 14:36:00,
2013-12-19 08:41:00,56.8,51.4,29.80,South,178,4.0,12.0,82,0.00,,,0.00,VWS V14.01,2013-12-19 14:41:00,
2013-12-19 08:46:00,57.0,51.6,29.80,SSE,166,5.0,19.0,82,0.00,,,0.00,VWS V14.01,2013-12-19 14:46:00,
2013-12-19 08:51:00,57.2,51.8,29.80,SE,132,5.0,19.0,82,0.00,,,0.00,VWS V14.01,2013-12-19 14:51:00,
2013-12-19 08:56:00,57.3,51.5,29.80,SSE,160,5.0,19.0,81,0.00,,,0.00,VWS V14.01,2013-12-19 14:56:00,
2013-12-19 09:01:00,57.4,51.6,29.80,SSE,148,7.0,19.0,81,0.00,,,0.00,VWS V14.01,2013-12-19 15:01:00,
2013-12-19 09:06:00,57.5,51.7,29.80,South,186,4.0,14.0,81,0.00,,,0.00,VWS V14.01,2013-12-19 15:06:00,
2013-12-19 09:11:00,57.5,51.7,29.80,South,180,8.0,14.0,81,0.00,,,0.00,VWS V14.01,2013-12-19 15:11:00,
2013-12-19 09:16:00,57.6,51.8,29.80,South,180,3.0,14.0,81,0.00,,,0.00,VWS V14.01,2013-12-19 15:16:00,
2013-12-19 09:21:00,57.7,51.9,29.80,SSE,165,8.0,14.0,81,0.00,,,0.00,VWS V14.01,2013-12-19 15:21:00,
2013-12-19 09:26:00,57.8,52.0,29.80,SSE,162,4.0,18.0,81,0.00,,,0.00,VWS V14.01,2013-12-19 15:26:00,
2013-12-19 09:31:00,57.9,51.8,29.80,SSE,149,1.0,18.0,80,0.00,,,0.00,VWS V14.01,2013-12-19 15:31:00,
2013-12-19 09:36:00,58.0,51.9,29.80,South,172,9.0,10.0,80,0.00,,,0.00,VWS V14.01,2013-12-19 15:36:00,
2013-12-19 09:41:00,58.0,51.9,29.80,SSE,160,7.0,11.0,80,0.00,,,0.00,VWS V14.01,2013-12-19 15:41:00,
2013-12-19 09:46:00,58.0,51.9,29.81,ESE,115,6.0,11.0,80,0.00,,,0.00,VWS V14.01,2013-12-19 15:46:00,
2013-12-19 09:51:00,58.1,52.3,29.81,South,180,7.0,12.0,81,0.00,,,0.00,VWS V14.01,2013-12-19 15:51:00,
2013-12-19 09:56:00,58.2,52.4,29.81,SSE,154,4.0,13.0,81,0.00,,,0.00,VWS V14.01,2013-12-19 15:56:00,
2013-12-19 10:01:00,58.2,52.4,29.81,SSE,154,5.0,13.0,81,0.00,,,0.00,VWS V14.01,2013-12-19 16:01:00,
2013-12-19 10:06:00,58.3,52.2,29.81,SE,146,0.0,10.0,80,0.00,,,0.00,VWS V14.01,2013-12-19 16:06:00,
2013-12-19 10:11:00,58.4,52.3,29.81,South,169,6.0,13.0,80,0.00,,,0.00,VWS V14.01,2013-12-19 16:11:00,
2013-12-19 10:16:00,58.4,52.3,29.82,South,169,4.0,13.0,80,0.00,,,0.00,VWS V14.01,2013-12-19 16:16:00,
2013-12-19 10:21:00,58.5,52.4,29.81,SSE,163,1.0,13.0,80,0.00,,,0.00,VWS V14.01,2013-12-19 16:21:00,
2013-12-19 10:26:00,58.5,52.4,29.82,SSE,164,1.0,13.0,80,0.00,,,0.00,VWS V14.01,2013-12-19 16:26:00,
2013-12-19 10:31:00,58.6,52.5,29.81,SSE,159,2.0,15.0,80,0.00,,,0.00,VWS V14.01,2013-12-19 16:31:00,
2013-12-19 10:36:00,58.6,52.5,29.81,South,171,5.0,13.0,80,0.00,,,0.00,VWS V14.01,2013-12-19 16:36:00,
2013-12-19 10:41:00,58.7,52.6,29.81,SSE,150,4.0,13.0,80,0.00,,,0.00,VWS V14.01,2013-12-19 16:41:00,
2013-12-19 10:46:00,58.7,52.6,29.81,SSW,192,4.0,13.0,80,0.00,,,0.00,VWS V14.01,2013-12-19 16:46:00,
2013-12-19 10:51:00,58.8,52.7,29.81,SSE,167,6.0,13.0,80,0.00,,,0.00,VWS V14.01,2013-12-19 16:51:00,
2013-12-19 10:56:00,58.9,52.8,29.81,SW,229,10.0,15.0,80,0.00,,,0.00,VWS V14.01,2013-12-19 16:56:00,
2013-12-19 11:01:00,59.0,52.8,29.80,SSW,196,7.0,15.0,80,0.00,,,0.00,VWS V14.01,2013-12-19 17:01:00,
2013-12-19 11:06:00,59.0,52.8,29.80,ESE,122,5.0,11.0,80,0.00,,,0.00,VWS V14.01,2013-12-19 17:06:00,
2013-12-19 11:11:00,59.0,52.5,29.80,South,184,7.0,11.0,79,0.00,,,0.00,VWS V14.01,2013-12-19 17:11:00,
2013-12-19 11:16:00,59.0,52.5,29.80,SE,145,2.0,13.0,79,0.00,,,0.00,VWS V14.01,2013-12-19 17:16:00,
2013-12-19 11:21:00,59.0,52.5,29.80,SSE,164,9.0,18.0,79,0.00,,,0.00,VWS V14.01,2013-12-19 17:21:00,
2013-12-19 11:26:00,59.0,52.5,29.80,SSW,193,7.0,18.0,79,0.00,,,0.00,VWS V14.01,2013-12-19 17:26:00,
2013-12-19 11:31:00,59.0,52.5,29.79,WSW,244,9.0,18.0,79,0.00,,,0.00,VWS V14.01,2013-12-19 17:31:00,
2013-12-19 11:36:00,59.0,52.5,29.79,South,177,8.0,11.0,79,0.00,,,0.00,VWS V14.01,2013-12-19 17:36:00,
2013-12-19 11:41:00,59.0,52.5,29.78,WSW,240,11.0,11.0,79,0.00,,,0.00,VWS V14.01,2013-12-19 17:41:00,
2013-12-19 11:46:00,59.0,52.5,29.78,South,187,4.0,13.0,79,0.00,,,0.00,VWS V14.01,2013-12-19 17:46:00,
2013-12-19 11:51:00,59.0,52.5,29.78,South,173,4.0,19.0,79,0.00,,,0.00,VWS V14.01,2013-12-19 17:51:00,
2013-12-19 11:56:00,59.1,52.6,29.77,SSE,152,5.0,19.0,79,0.00,,,0.00,VWS V14.01,2013-12-19 17:56:00,
2013-12-19 12:01:00,59.3,52.8,29.76,South,191,6.0,19.0,79,0.00,,,0.00,VWS V14.01,2013-12-19 18:01:00,
2013-12-19 12:05:00,59.4,52.9,29.77,SSE,167,7.0,9.0,79,0.00,,,0.00,VWS V14.01,2013-12-19 18:05:00,
2013-12-19 12:10:00,59.6,52.7,29.76,ESE,117,7.0,11.0,78,0.00,,,0.00,VWS V14.01,2013-12-19 18:10:00,
2013-12-19 12:15:00,59.7,52.8,29.75,SSE,164,7.0,16.0,78,0.00,,,0.00,VWS V14.01,2013-12-19 18:15:00,
2013-12-19 12:20:00,59.8,52.9,29.75,South,174,7.0,16.0,78,0.00,,,0.00,VWS V14.01,2013-12-19 18:20:00,
2013-12-19 12:25:00,60.0,53.1,29.75,SE,132,4.0,16.0,78,0.00,,,0.00,VWS V14.01,2013-12-19 18:25:00,
2013-12-19 12:30:00,60.2,53.0,29.74,South,189,13.0,16.0,77,0.00,,,0.00,VWS V14.01,2013-12-19 18:30:00,
2013-12-19 12:35:00,60.4,53.2,29.74,SSE,159,5.0,10.0,77,0.00,,,0.00,VWS V14.01,2013-12-19 18:35:00,
2013-12-19 12:40:00,60.6,53.4,29.73,South,171,7.0,10.0,77,0.00,,,0.00,VWS V14.01,2013-12-19 18:40:00,
2013-12-19 12:45:00,60.7,53.1,29.73,SE,137,10.0,11.0,76,0.00,,,0.00,VWS V14.01,2013-12-19 18:45:00,
2013-12-19 12:50:00,60.7,53.1,29.72,SE,125,7.0,13.0,76,0.00,,,0.00,VWS V14.01,2013-12-19 18:50:00,
2013-12-19 12:55:00,60.8,53.2,29.72,SE,125,9.0,13.0,76,0.00,,,0.00,VWS V14.01,2013-12-19 18:55:00,
2013-12-19 13:00:00,60.8,53.2,29.72,SE,146,0.0,13.0,76,0.00,,,0.00,VWS V14.01,2013-12-19 19:00:00,
2013-12-19 13:05:00,61.0,53.4,29.71,South,179,6.0,16.0,76,0.00,,,0.00,VWS V14.01,2013-12-19 19:05:00,
2013-12-19 13:10:00,61.2,53.6,29.72,SW,215,5.0,16.0,76,0.00,,,0.00,VWS V14.01,2013-12-19 19:10:00,
2013-12-19 13:15:00,61.7,53.7,29.71,SSW,192,4.0,16.0,75,0.00,,,0.00,VWS V14.01,2013-12-19 19:15:00,
2013-12-19 13:20:00,62.4,54.0,29.71,East,92,0.0,16.0,74,0.00,,,0.00,VWS V14.01,2013-12-19 19:20:00,
2013-12-19 13:25:00,63.0,54.2,29.71,SSE,161,6.0,16.0,73,0.00,,,0.00,VWS V14.01,2013-12-19 19:25:00,
2013-12-19 13:30:00,63.3,54.1,29.71,SSE,155,6.0,16.0,72,0.00,,,0.00,VWS V14.01,2013-12-19 19:30:00,
2013-12-19 13:35:00,63.3,53.8,29.71,SSE,159,4.0,11.0,71,0.00,,,0.00,VWS V14.01,2013-12-19 19:35:00,
2013-12-19 13:40:00,63.2,54.0,29.70,South,180,5.0,11.0,72,0.00,,,0.00,VWS V14.01,2013-12-19 19:40:00,
2013-12-19 13:45:00,63.1,53.9,29.70,SSE,150,9.0,11.0,72,0.00,,,0.00,VWS V14.01,2013-12-19 19:45:00,
2013-12-19 13:50:00,63.0,53.8,29.70,ESE,103,3.0,11.0,72,0.00,,,0.00,VWS V14.01,2013-12-19 19:50:00,
2013-12-19 13:55:00,63.0,53.8,29.70,South,178,7.0,18.0,72,0.00,,,0.00,VWS V14.01,2013-12-19 19:55:00,
2013-12-19 14:00:00,63.1,53.9,29.69,ESE,117,5.0,18.0,72,0.00,,,0.00,VWS V14.01,2013-12-19 20:00:00,
2013-12-19 14:05:00,63.3,53.8,29.69,SW,214,12.0,14.0,71,0.00,,,0.00,VWS V14.01,2013-12-19 20:05:00,
2013-12-19 14:10:00,63.7,54.1,29.69,SSE,157,4.0,14.0,71,0.00,,,0.00,VWS V14.01,2013-12-19 20:10:00,
2013-12-19 14:15:00,64.0,54.0,29.68,SSE,147,2.0,14.0,70,0.00,,,0.00,VWS V14.01,2013-12-19 20:15:00,
2013-12-19 14:20:00,64.1,53.7,29.68,South,171,5.0,14.0,69,0.00,,,0.00,VWS V14.01,2013-12-19 20:20:00,
2013-12-19 14:25:00,64.1,53.7,29.68,SE,144,0.0,14.0,69,0.00,,,0.00,VWS V14.01,2013-12-19 20:25:00,
2013-12-19 14:30:00,64.1,53.7,29.68,SE,136,6.0,14.0,69,0.00,,,0.00,VWS V14.01,2013-12-19 20:30:00,
2013-12-19 14:35:00,64.0,53.6,29.68,SSE,167,2.0,9.0,69,0.00,,,0.00,VWS V14.01,2013-12-19 20:35:00,
2013-12-19 14:40:00,64.0,53.6,29.68,SE,140,5.0,11.0,69,0.00,,,0.00,VWS V14.01,2013-12-19 20:40:00,
2013-12-19 14:45:00,63.9,53.5,29.67,SE,139,6.0,14.0,69,0.00,,,0.00,VWS V14.01,2013-12-19 20:45:00,
2013-12-19 14:50:00,63.8,53.8,29.67,SSW,210,9.0,20.0,70,0.00,,,0.00,VWS V14.01,2013-12-19 20:50:00,
2013-12-19 14:55:00,63.8,53.8,29.67,SE,138,9.0,21.0,70,0.00,,,0.00,VWS V14.01,2013-12-19 20:55:00,
2013-12-19 15:00:00,63.7,53.7,29.67,SSE,157,4.0,21.0,70,0.00,,,0.00,VWS V14.01,2013-12-19 21:00:00,
2013-12-19 15:05:00,63.7,53.7,29.67,South,178,5.0,7.0,70,0.00,,,0.00,VWS V14.01,2013-12-19 21:05:00,
2013-12-19 15:10:00,63.6,54.0,29.67,SSW,194,1.0,10.0,71,0.00,,,0.00,VWS V14.01,2013-12-19 21:10:00,
2013-12-19 15:15:00,63.5,53.5,29.67,SSE,160,6.0,13.0,70,0.00,,,0.00,VWS V14.01,2013-12-19 21:15:00,
2013-12-19 15:20:00,63.4,53.8,29.67,SSE,167,1.0,13.0,71,0.00,,,0.00,VWS V14.01,2013-12-19 21:20:00,
2013-12-19 15:25:00,63.4,53.8,29.67,SSE,165,10.0,13.0,71,0.00,,,0.00,VWS V14.01,2013-12-19 21:25:00,
2013-12-19 15:30:00,63.5,53.9,29.68,South,184,2.0,13.0,71,0.00,,,0.00,VWS V14.01,2013-12-19 21:30:00,
2013-12-19 15:35:00,63.5,53.9,29.68,SSE,167,5.0,11.0,71,0.00,,,0.00,VWS V14.01,2013-12-19 21:35:00,
2013-12-19 15:40:00,63.5,53.9,29.68,SE,140,4.0,11.0,71,0.00,,,0.00,VWS V14.01,2013-12-19 21:40:00,
2013-12-19 15:45:00,63.5,53.9,29.68,SSE,162,0.0,11.0,71,0.00,,,0.00,VWS V14.01,2013-12-19 21:45:00,
2013-12-19 15:50:00,63.5,53.9,29.68,South,172,5.0,11.0,71,0.00,,,0.00,VWS V14.01,2013-12-19 21:50:00,
2013-12-19 15:55:00,63.4,53.8,29.68,SE,138,2.0,11.0,71,0.00,,,0.00,VWS V14.01,2013-12-19 21:55:00,
2013-12-19 16:00:00,63.3,53.8,29.67,SSW,200,9.0,13.0,71,0.00,,,0.00,VWS V14.01,2013-12-19 22:00:00,
2013-12-19 16:05:00,63.2,54.0,29.68,SSE,153,7.0,16.0,72,0.00,,,0.00,VWS V14.01,2013-12-19 22:05:00,
2013-12-19 16:10:00,63.2,54.0,29.68,South,186,2.0,16.0,72,0.00,,,0.00,VWS V14.01,2013-12-19 22:10:00,
2013-12-19 16:15:00,63.2,54.0,29.68,South,178,3.0,16.0,72,0.00,,,0.00,VWS V14.01,2013-12-19 22:15:00,
2013-12-19 16:20:00,63.2,54.0,29.67,SE,134,1.0,16.0,72,0.00,,,0.00,VWS V14.01,2013-12-19 22:20:00,
2013-12-19 16:25:00,63.1,53.9,29.67,SSE,153,2.0,16.0,72,0.00,,,0.00,VWS V14.01,2013-12-19 22:25:00,
2013-12-19 16:30:00,63.0,54.2,29.68,SE,128,3.0,16.0,73,0.00,,,0.00,VWS V14.01,2013-12-19 22:30:00,
2013-12-19 16:35:00,62.9,54.1,29.68,SE,138,7.0,9.0,73,0.00,,,0.00,VWS V14.01,2013-12-19 22:35:00,
2013-12-19 16:40:00,62.7,53.9,29.68,South,169,5.0,12.0,73,0.00,,,0.00,VWS V14.01,2013-12-19 22:40:00,
2013-12-19 16:45:00,62.5,54.1,29.68,SSE,159,2.0,12.0,74,0.00,,,0.00,VWS V14.01,2013-12-19 22:45:00,
2013-12-19 16:50:00,62.4,54.0,29.69,SSE,163,3.0,12.0,74,0.00,,,0.00,VWS V14.01,2013-12-19 22:50:00,
2013-12-19 16:55:00,62.2,54.2,29.69,ESE,111,5.0,12.0,75,0.00,,,0.00,VWS V14.01,2013-12-19 22:55:00,
2013-12-19 17:00:00,62.1,54.1,29.69,SSE,166,4.0,12.0,75,0.00,,,0.00,VWS V14.01,2013-12-19 23:00:00,
2013-12-19 17:05:00,62.0,54.0,29.69,SSE,152,4.0,8.0,75,0.00,,,0.00,VWS V14.01,2013-12-19 23:05:00,
2013-12-19 17:10:00,61.9,54.3,29.69,South,171,5.0,8.0,76,0.00,,,0.00,VWS V14.01,2013-12-19 23:10:00,
2013-12-19 17:15:00,61.7,54.1,29.68,South,179,0.0,9.0,76,0.00,,,0.00,VWS V14.01,2013-12-19 23:15:00,
2013-12-19 17:20:00,61.6,54.0,29.68,SSE,157,0.0,9.0,76,0.00,,,0.00,VWS V14.01,2013-12-19 23:20:00,
2013-12-19 17:25:00,61.5,53.9,29.68,SSE,167,0.0,9.0,76,0.00,,,0.00,VWS V14.01,2013-12-19 23:25:00,
2013-12-19 17:30:00,61.3,54.0,29.68,SSE,148,0.0,9.0,77,0.00,,,0.00,VWS V14.01,2013-12-19 23:30:00,
2013-12-19 17:35:00,61.2,53.9,29.68,SSW,192,5.0,7.0,77,0.00,,,0.00,VWS V14.01,2013-12-19 23:35:00,
2013-12-19 17:40:00,61.2,53.9,29.69,SE,137,0.0,7.0,77,0.00,,,0.00,VWS V14.01,2013-12-19 23:40:00,
2013-12-19 17:45:00,61.2,54.3,29.68,SSW,196,7.0,7.0,78,0.00,,,0.00,VWS V14.01,2013-12-19 23:45:00,
2013-12-19 17:50:00,61.2,54.3,29.68,SE,146,6.0,7.0,78,0.00,,,0.00,VWS V14.01,2013-12-19 23:50:00,
2013-12-19 17:55:00,61.3,54.4,29.68,SE,144,7.0,7.0,78,0.00,,,0.00,VWS V14.01,2013-12-19 23:55:00,
2013-12-19 18:00:00,61.4,54.5,29.68,SSE,150,0.0,7.0,78,0.00,,,0.00,VWS V14.01,2013-12-20 00:00:00,
2013-12-19 18:05:00,61.4,54.1,29.68,SE,144,0.0,6.0,77,0.00,,,0.00,VWS V14.01,2013-12-20 00:05:00,
2013-12-19 18:10:00,61.5,54.6,29.68,SE,137,0.0,8.0,78,0.00,,,0.00,VWS V14.01,2013-12-20 00:10:00,
2013-12-19 18:15:00,61.4,54.5,29.68,SW,214,0.0,8.0,78,0.00,,,0.00,VWS V14.01,2013-12-20 00:15:00,
2013-12-19 18:20:00,61.4,54.5,29.68,SE,142,4.0,8.0,78,0.00,,,0.00,VWS V14.01,2013-12-20 00:20:00,
2013-12-19 18:25:00,61.3,54.4,29.68,SE,132,0.0,8.0,78,0.00,,,0.00,VWS V14.01,2013-12-20 00:25:00,
2013-12-19 18:30:00,61.2,54.3,29.68,SSE,158,1.0,8.0,78,0.00,,,0.00,VWS V14.01,2013-12-20 00:30:00,
2013-12-19 18:35:00,61.1,54.5,29.68,South,185,2.0,5.0,79,0.00,,,0.00,VWS V14.01,2013-12-20 00:35:00,
2013-12-19 18:40:00,61.1,54.5,29.69,SSE,164,1.0,8.0,79,0.00,,,0.00,VWS V14.01,2013-12-20 00:40:00,
2013-12-19 18:45:00,61.1,54.5,29.68,SE,130,2.0,8.0,79,0.00,,,0.00,VWS V14.01,2013-12-20 00:45:00,
2013-12-19 18:50:00,61.1,54.5,29.68,SSE,147,0.0,8.0,79,0.00,,,0.00,VWS V14.01,2013-12-20 00:50:00,
2013-12-19 18:55:00,61.0,54.8,29.68,SSE,156,0.0,8.0,80,0.00,,,0.00,VWS V14.01,2013-12-20 00:55:00,
2013-12-19 19:00:00,60.9,54.3,29.68,SSE,152,0.0,8.0,79,0.00,,,0.00,VWS V14.01,2013-12-20 01:00:00,
2013-12-19 19:05:00,60.7,54.5,29.68,SSE,152,0.0,3.0,80,0.00,,,0.00,VWS V14.01,2013-12-20 01:05:00,
2013-12-19 19:10:00,60.5,54.3,29.68,SSE,153,0.0,5.0,80,0.00,,,0.00,VWS V14.01,2013-12-20 01:10:00,
2013-12-19 19:15:00,60.4,54.2,29.68,SSE,153,1.0,5.0,80,0.00,,,0.00,VWS V14.01,2013-12-20 01:15:00,
2013-12-19 19:20:00,60.2,54.4,29.68,SSE,153,0.0,5.0,81,0.00,,,0.00,VWS V14.01,2013-12-20 01:20:00,
2013-12-19 19:25:00,60.1,54.3,29.67,SSE,153,0.0,5.0,81,0.00,,,0.00,VWS V14.01,2013-12-20 01:25:00,
2013-12-19 19:30:00,59.8,54.0,29.67,SSE,153,0.0,5.0,81,0.00,,,0.00,VWS V14.01,2013-12-20 01:30:00,
2013-12-19 19:35:00,59.5,53.7,29.67,SSE,152,0.0,0.0,81,0.00,,,0.00,VWS V14.01,2013-12-20 01:35:00,
2013-12-19 19:40:00,59.3,53.8,29.67,SSE,152,0.0,4.0,82,0.00,,,0.00,VWS V14.01,2013-12-20 01:40:00,
2013-12-19 19:45:00,59.0,53.8,29.67,SSE,152,0.0,5.0,83,0.00,,,0.00,VWS V14.01,2013-12-20 01:45:00,
2013-12-19 19:50:00,59.0,54.2,29.67,SSE,168,2.0,7.0,84,0.00,,,0.00,VWS V14.01,2013-12-20 01:50:00,
2013-12-19 19:55:00,59.0,54.2,29.67,SSE,165,0.0,7.0,84,0.00,,,0.00,VWS V14.01,2013-12-20 01:55:00,
2013-12-19 20:00:00,59.0,54.5,29.67,SE,146,0.0,7.0,85,0.00,,,0.00,VWS V14.01,2013-12-20 02:00:00,
2013-12-19 20:05:00,59.0,54.5,29.67,South,171,1.0,1.0,85,0.00,,,0.00,VWS V14.01,2013-12-20 02:05:00,
2013-12-19 20:10:00,59.0,54.5,29.68,SSE,160,1.0,8.0,85,0.00,,,0.00,VWS V14.01,2013-12-20 02:10:00,
2013-12-19 20:15:00,59.0,54.5,29.67,SSE,161,1.0,8.0,85,0.00,,,0.00,VWS V14.01,2013-12-20 02:15:00,
2013-12-19 20:20:00,59.0,54.5,29.67,SSE,161,0.0,8.0,85,0.00,,,0.00,VWS V14.01,2013-12-20 02:20:00,
2013-12-19 20:25:00,59.0,54.5,29.67,SSE,159,0.0,8.0,85,0.00,,,0.00,VWS V14.01,2013-12-20 02:25:00,
2013-12-19 20:30:00,59.0,54.5,29.67,SSE,159,0.0,8.0,85,0.00,,,0.00,VWS V14.01,2013-12-20 02:30:00,
2013-12-19 20:35:00,58.9,54.4,29.67,SSE,159,0.0,3.0,85,0.00,,,0.00,VWS V14.01,2013-12-20 02:35:00,
2013-12-19 20:40:00,58.7,54.2,29.67,SSE,160,0.0,4.0,85,0.00,,,0.00,VWS V14.01,2013-12-20 02:40:00,
2013-12-19 20:45:00,58.5,54.3,29.67,SSE,161,1.0,5.0,86,0.00,,,0.00,VWS V14.01,2013-12-20 02:45:00,
2013-12-19 20:50:00,58.4,54.5,29.68,SSE,157,1.0,5.0,87,0.00,,,0.00,VWS V14.01,2013-12-20 02:50:00,
2013-12-19 20:55:00,58.3,54.5,29.67,SSE,157,0.0,5.0,87,0.00,,,0.00,VWS V14.01,2013-12-20 02:55:00,
2013-12-19 21:00:00,58.3,54.5,29.67,SSE,157,0.0,5.0,87,0.00,,,0.00,VWS V14.01,2013-12-20 03:00:00,
2013-12-19 21:05:00,58.3,54.8,29.67,SE,133,4.0,5.0,88,0.00,,,0.00,VWS V14.01,2013-12-20 03:05:00,
2013-12-19 21:10:00,58.5,55.0,29.67,SE,127,2.0,6.0,88,0.00,,,0.00,VWS V14.01,2013-12-20 03:10:00,
2013-12-19 21:15:00,58.8,55.6,29.67,SE,125,0.0,6.0,89,0.00,,,0.00,VWS V14.01,2013-12-20 03:15:00,
2013-12-19 21:20:00,59.0,56.1,29.67,SE,137,0.0,7.0,90,0.00,,,0.00,VWS V14.01,2013-12-20 03:20:00,
2013-12-19 21:25:00,59.6,56.4,29.67,ESE,111,0.0,7.0,89,0.00,,,0.00,VWS V14.01,2013-12-20 03:25:00,
2013-12-19 21:30:00,60.0,56.8,29.67,South,175,2.0,7.0,89,0.00,,,0.00,VWS V14.01,2013-12-20 03:30:00,
2013-12-19 21:35:00,60.3,56.7,29.67,ESE,119,0.0,6.0,88,0.00,,,0.00,VWS V14.01,2013-12-20 03:35:00,
2013-12-19 21:40:00,60.6,56.7,29.67,SE,143,6.0,7.0,87,0.00,,,0.00,VWS V14.01,2013-12-20 03:40:00,
2013-12-19 21:45:00,60.9,57.0,29.67,SSE,150,2.0,11.0,87,0.00,,,0.00,VWS V14.01,2013-12-20 03:45:00,
2013-12-19 21:50:00,61.1,56.9,29.67,South,172,4.0,11.0,86,0.00,,,0.00,VWS V14.01,2013-12-20 03:50:00,
2013-12-19 21:55:00,61.3,57.1,29.67,SSE,160,2.0,11.0,86,0.00,,,0.00,VWS V14.01,2013-12-20 03:55:00,
2013-12-19 22:00:00,61.5,57.3,29.67,South,190,6.0,11.0,86,0.00,,,0.00,VWS V14.01,2013-12-20 04:00:00,
2013-12-19 22:05:00,61.6,57.0,29.67,SE,145,2.0,12.0,85,0.00,,,0.00,VWS V14.01,2013-12-20 04:05:00,
2013-12-19 22:10:00,61.8,57.2,29.66,South,179,1.0,12.0,85,0.00,,,0.00,VWS V14.01,2013-12-20 04:10:00,
2013-12-19 22:15:00,61.9,57.3,29.66,South,176,4.0,12.0,85,0.00,,,0.00,VWS V14.01,2013-12-20 04:15:00,
2013-12-19 22:20:00,62.0,57.5,29.66,SE,137,1.0,12.0,85,0.00,,,0.00,VWS V14.01,2013-12-20 04:20:00,
2013-12-19 22:25:00,62.0,57.1,29.66,East,101,1.0,12.0,84,0.00,,,0.00,VWS V14.01,2013-12-20 04:25:00,
2013-12-19 22:30:00,62.0,57.1,29.67,SSE,164,2.0,12.0,84,0.00,,,0.00,VWS V14.01,2013-12-20 04:30:00,
2013-12-19 22:35:00,62.0,57.1,29.67,SSE,162,1.0,7.0,84,0.00,,,0.00,VWS V14.01,2013-12-20 04:35:00,
2013-12-19 22:40:00,62.0,57.1,29.67,South,175,1.0,7.0,84,0.00,,,0.00,VWS V14.01,2013-12-20 04:40:00,
2013-12-19 22:45:00,62.0,57.1,29.67,South,183,2.0,7.0,84,0.00,,,0.00,VWS V14.01,2013-12-20 04:45:00,
2013-12-19 22:50:00,62.0,57.1,29.67,SSE,150,0.0,8.0,84,0.00,,,0.00,VWS V14.01,2013-12-20 04:50:00,
2013-12-19 22:55:00,62.0,57.1,29.68,WSW,253,5.0,8.0,84,0.00,,,0.00,VWS V14.01,2013-12-20 04:55:00,
2013-12-19 23:00:00,62.0,57.1,29.68,South,186,1.0,8.0,84,0.00,,,0.00,VWS V14.01,2013-12-20 05:00:00,
2013-12-19 23:01:00,61.9,57.0,29.68,South,185,4.0,8.0,84,0.00,,,0.00,VWS V14.01,2013-12-20 05:01:00,
2013-12-19 23:06:00,61.9,57.0,29.68,SSW,207,6.0,6.0,84,0.00,,,0.00,VWS V14.01,2013-12-20 05:06:00,
2013-12-19 23:11:00,61.9,57.3,29.68,South,191,1.0,6.0,85,0.00,,,0.00,VWS V14.01,2013-12-20 05:11:00,
2013-12-19 23:16:00,62.0,57.1,29.68,South,188,0.0,11.0,84,0.00,,,0.00,VWS V14.01,2013-12-20 05:16:00,
2013-12-19 23:21:00,62.0,57.1,29.68,SSW,195,0.0,11.0,84,0.00,,,0.00,VWS V14.01,2013-12-20 05:21:00,
2013-12-19 23:26:00,61.9,57.0,29.68,South,183,2.0,11.0,84,0.00,,,0.00,VWS V14.01,2013-12-20 05:26:00,
2013-12-19 23:31:00,61.9,57.3,29.68,SE,128,4.0,11.0,85,0.00,,,0.00,VWS V14.01,2013-12-20 05:31:00,
2013-12-19 23:36:00,61.9,57.3,29.68,South,180,0.0,6.0,85,0.00,,,0.00,VWS V14.01,2013-12-20 05:36:00,
2013-12-19 23:41:00,61.9,57.3,29.68,SSW,197,2.0,6.0,85,0.00,,,0.00,VWS V14.01,2013-12-20 05:41:00,
2013-12-19 23:46:00,61.9,57.3,29.68,SSW,202,8.0,8.0,85,0.00,,,0.00,VWS V14.01,2013-12-20 05:46:00,
2013-12-19 23:47:00,61.9,57.3,29.68,SSE,157,4.0,8.0,85,0.00,,,0.00,VWS V14.01,2013-12-20 05:47:00,
2013-12-19 23:52:00,61.9,57.3,29.68,South,178,0.0,8.0,85,0.00,,,0.00,VWS V14.01,2013-12-20 05:52:00,
2013-12-19 23:57:00,61.8,57.2,29.68,SSE,152,5.0,8.0,85,0.00,,,0.00,VWS V14.01,2013-12-20 05:57:00,